TimeCDT,TemperatureF,Dew PointF,Humidity,Sea Level PressureIn,VisibilityMPH,Wind Direction,Wind SpeedMPH,Gust SpeedMPH,PrecipitationIn,Events,Conditions,WindDirDegrees,DateUTC
12:15 AM,77.0,57.2,50,30.05,10.0,SSE,6.9,-,N/A,,Clear,160,2013-09-12 05:15:00
12:35 AM,75.2,57.2,53,30.05,10.0,South,5.8,-,N/A,,Clear,170,2013-09-12 05:35:00
12:55 AM,75.2,57.2,53,30.05,10.0,SSW,5.8,-,N/A,,Clear,200,2013-09-12 05:55:00
1:15 AM,75.2,57.2,53,30.05,10.0,South,6.9,-,N/A,,Clear,180,2013-09-12 06:15:00
1:35 AM,75.2,57.2,53,30.04,10.0,SSW,5.8,-,N/A,,Clear,200,2013-09-12 06:35:00
1:55 AM,75.2,59.0,57,30.04,10.0,SSW,3.5,-,N/A,,Clear,200,2013-09-12 06:55:00
2:15 AM,75.2,59.0,57,30.05,10.0,South,3.5,-,N/A,,Clear,190,2013-09-12 07:15:00
2:35 AM,75.2,60.8,61,30.05,10.0,SW,3.5,-,N/A,,Clear,220,2013-09-12 07:35:00
2:55 AM,73.4,60.8,65,30.04,10.0,Calm,Calm,-,N/A,,Clear,0,2013-09-12 07:55:00
3:15 AM,73.4,59.0,61,30.04,10.0,Calm,Calm,-,N/A,,Clear,0,2013-09-12 08:15:00
3:35 AM,73.4,59.0,61,30.04,10.0,Calm,Calm,-,N/A,,Clear,0,2013-09-12 08:35:00
3:55 AM,73.4,60.8,65,30.05,10.0,Calm,Calm,-,N/A,,Clear,0,2013-09-12 08:55:00
4:15 AM,71.6,57.2,60,30.05,10.0,Calm,Calm,-,N/A,,Clear,0,2013-09-12 09:15:00
4:35 AM,71.6,60.8,69,30.05,10.0,South,3.5,-,N/A,,Clear,190,2013-09-12 09:35:00
4:55 AM,71.6,60.8,69,30.05,10.0,Calm,Calm,-,N/A,,Clear,0,2013-09-12 09:55:00
5:15 AM,71.6,60.8,69,30.05,10.0,West,3.5,-,N/A,,Clear,280,2013-09-12 10:15:00
5:35 AM,71.6,60.8,69,30.05,10.0,West,3.5,-,N/A,,Clear,270,2013-09-12 10:35:00
5:55 AM,71.6,60.8,69,30.05,10.0,Calm,Calm,-,N/A,,Clear,0,2013-09-12 10:55:00
6:15 AM,71.6,60.8,69,30.05,10.0,Calm,Calm,-,N/A,,Clear,0,2013-09-12 11:15:00
6:35 AM,69.8,59.0,68,30.05,10.0,Calm,Calm,-,N/A,,Clear,0,2013-09-12 11:35:00
6:55 AM,69.8,59.0,68,30.06,10.0,Calm,Calm,-,N/A,,Clear,0,2013-09-12 11:55:00
7:15 AM,69.8,60.8,73,30.06,10.0,Calm,Calm,-,N/A,,Clear,0,2013-09-12 12:15:00
7:35 AM,69.8,60.8,73,30.07,10.0,Calm,Calm,-,N/A,,Clear,0,2013-09-12 12:35:00
7:55 AM,71.6,60.8,69,30.08,10.0,Calm,Calm,-,N/A,,Clear,0,2013-09-12 12:55:00
8:15 AM,73.4,62.6,69,30.08,10.0,Calm,Calm,-,N/A,,Clear,0,2013-09-12 13:15:00
8:35 AM,75.2,64.4,69,30.08,10.0,Calm,Calm,-,N/A,,Clear,0,2013-09-12 13:35:00
8:55 AM,78.8,64.4,61,30.08,10.0,Calm,Calm,-,N/A,,Clear,0,2013-09-12 13:55:00
9:15 AM,80.6,66.2,61,30.09,10.0,Calm,Calm,-,N/A,,Clear,0,2013-09-12 14:15:00
9:35 AM,80.6,66.2,61,30.09,10.0,Calm,Calm,-,N/A,,Clear,0,2013-09-12 14:35:00
9:55 AM,82.4,66.2,58,30.09,10.0,NE,3.5,-,N/A,,Clear,50,2013-09-12 14:55:00
10:15 AM,84.2,68.0,58,30.09,10.0,East,4.6,-,N/A,,Clear,80,2013-09-12 15:15:00
10:35 AM,86.0,66.2,51,30.09,10.0,NE,4.6,-,N/A,,Clear,50,2013-09-12 15:35:00
10:55 AM,84.2,66.2,55,30.09,10.0,Calm,Calm,-,N/A,,Clear,0,2013-09-12 15:55:00
11:15 AM,89.6,66.2,46,30.09,10.0,SSE,6.9,-,N/A,,Clear,160,2013-09-12 16:15:00
11:35 AM,89.6,66.2,46,30.08,10.0,South,5.8,-,N/A,,Clear,170,2013-09-12 16:35:00
11:55 AM,91.4,64.4,41,30.08,10.0,ESE,10.4,-,N/A,,Partly Cloudy,120,2013-09-12 16:55:00
12:15 PM,91.4,64.4,41,30.07,10.0,ESE,6.9,-,N/A,,Partly Cloudy,120,2013-09-12 17:15:00
12:35 PM,93.2,64.4,38,30.06,10.0,ESE,10.4,-,N/A,,Clear,120,2013-09-12 17:35:00
12:55 PM,93.2,62.6,36,30.05,10.0,Calm,Calm,-,N/A,,Clear,0,2013-09-12 17:55:00
1:15 PM,95.0,64.4,36,30.05,10.0,ESE,10.4,-,N/A,,Scattered Clouds,120,2013-09-12 18:15:00
1:35 PM,95.0,62.6,34,30.03,10.0,East,5.8,-,N/A,,Partly Cloudy,100,2013-09-12 18:35:00
1:55 PM,93.2,62.6,36,30.02,10.0,ESE,8.1,-,N/A,,Clear,120,2013-09-12 18:55:00
2:15 PM,93.2,62.6,36,30.01,10.0,SSE,5.8,-,N/A,,Partly Cloudy,160,2013-09-12 19:15:00
2:35 PM,96.8,64.4,34,30.00,10.0,Calm,Calm,-,N/A,,Partly Cloudy,0,2013-09-12 19:35:00
2:55 PM,93.2,62.6,36,29.99,10.0,Calm,Calm,-,N/A,,Clear,0,2013-09-12 19:55:00
3:15 PM,95.0,62.6,34,29.98,10.0,NE,8.1,-,N/A,,Clear,50,2013-09-12 20:15:00
3:35 PM,96.8,64.4,34,29.97,10.0,NNE,9.2,-,N/A,,Clear,30,2013-09-12 20:35:00
3:55 PM,95.0,62.6,34,29.96,10.0,ENE,3.5,-,N/A,,Clear,70,2013-09-12 20:55:00
4:15 PM,96.8,62.6,32,29.95,10.0,Calm,Calm,-,N/A,,Clear,0,2013-09-12 21:15:00
4:35 PM,95.0,62.6,34,29.94,10.0,Calm,Calm,-,N/A,,Partly Cloudy,0,2013-09-12 21:35:00
4:55 PM,96.8,62.6,32,29.93,10.0,ESE,5.8,-,N/A,,Partly Cloudy,110,2013-09-12 21:55:00
5:15 PM,96.8,60.8,30,29.93,10.0,South,5.8,-,N/A,,Clear,180,2013-09-12 22:15:00
5:35 PM,95.0,60.8,32,29.92,10.0,East,9.2,-,N/A,,Clear,90,2013-09-12 22:35:00
5:55 PM,95.0,60.8,32,29.92,10.0,NE,8.1,-,N/A,,Clear,50,2013-09-12 22:55:00
6:15 PM,96.8,60.8,30,29.92,10.0,South,3.5,-,N/A,,Partly Cloudy,170,2013-09-12 23:15:00
6:35 PM,96.8,60.8,30,29.91,10.0,East,9.2,-,N/A,,Partly Cloudy,100,2013-09-12 23:35:00
6:55 PM,93.2,59.0,32,29.91,10.0,ENE,5.8,-,N/A,,Clear,70,2013-09-12 23:55:00
7:15 PM,93.2,59.0,32,29.92,10.0,ENE,4.6,-,N/A,,Clear,70,2013-09-13 00:15:00
7:35 PM,91.4,57.2,31,29.92,10.0,East,4.6,-,N/A,,Clear,80,2013-09-13 00:35:00
7:55 PM,91.4,57.2,31,29.92,10.0,Calm,Calm,-,N/A,,Clear,0,2013-09-13 00:55:00
8:15 PM,87.8,57.2,35,29.93,10.0,NE,3.5,-,N/A,,Clear,40,2013-09-13 01:15:00
8:35 PM,87.8,57.2,35,29.94,10.0,East,4.6,-,N/A,,Clear,90,2013-09-13 01:35:00
8:55 PM,87.8,57.2,35,29.95,10.0,SE,8.1,-,N/A,,Clear,140,2013-09-13 01:55:00
9:15 PM,86.0,59.0,40,29.96,10.0,SSE,4.6,-,N/A,,Clear,150,2013-09-13 02:15:00
9:35 PM,84.2,57.2,40,29.97,10.0,South,3.5,-,N/A,,Clear,180,2013-09-13 02:35:00
9:55 PM,84.2,57.2,40,29.97,10.0,SSE,4.6,-,N/A,,Clear,150,2013-09-13 02:55:00
10:15 PM,84.2,57.2,40,29.97,10.0,SE,4.6,-,N/A,,Clear,130,2013-09-13 03:15:00
10:35 PM,82.4,57.2,42,29.97,10.0,SSE,3.5,-,N/A,,Clear,150,2013-09-13 03:35:00
10:55 PM,82.4,57.2,42,29.98,10.0,South,5.8,-,N/A,,Clear,190,2013-09-13 03:55:00
11:15 PM,80.6,57.2,45,29.98,10.0,SSW,5.8,-,N/A,,Clear,210,2013-09-13 04:15:00
11:35 PM,80.6,57.2,45,29.98,10.0,Calm,Calm,-,N/A,,Clear,0,2013-09-13 04:35:00
11:55 PM,78.8,57.2,47,29.98,10.0,SW,3.5,-,N/A,,Clear,220,2013-09-13 04:55:00